RH
84 84 86 84 85 83 81 81 82 80 89 96 99 99 99 98 91 80 95 92 95 93 93 87 95 94 70 50 46 46 52 64 59 72 72 71 69 69 62 59 69 63 69 73 72 78 72
87 86 88 84 81 81 82 82 80 79 80 88 96 98 100 99 90 72 93 96 95 95 94 77 95 92 65 56 43 47 53 64 63 67 63 68 71 70 62 64 62 66 66 66 67 72 73
81 82 84 88 82 78 74 74 79 79 80 80 84 94 98 100 92 88 95 91 97 95 98 66 94 91 67 43 42 47 56 58 68 68 70 84 78 83 58 72 60 65 70 62 70 67 75
84 85 86 87 90 83 77 81 80 80 80 80 83 94 96 100 94 77 79 78 89 89 79 65 94 84 50 38 42 52 52 57 65 73 77 80 80 81 68 55 64 60 62 84 71 70 73
91 91 87 84 83 86 87 84 79 80 81 82 82 92 100 99 98 80 71 57 61 52 73 69 91 59 45 41 46 49 52 55 57 62 68 72 80 73 66 70 65 62 65 87 55 78 82
88 90 92 93 90 84 84 76 85 79 82 82 82 88 94 96 100 86 65 56 49 50 62 72 62 60 40 45 49 52 54 64 59 53 55 62 69 82 70 69 60 60 62 47 52 70 74
89 86 86 87 94 96 94 92 82 80 78 84 83 84 69 73 100 83 61 54 50 54 57 46 42 47 47 49 56 50 55 56 49 47 61 55 73 74 66 59 59 56 53 34 64 64 79
89 85 89 85 86 90 95 96 95 84 83 82 85 78 89 92 100 88 70 60 55 55 65 49 49 51 51 54 56 46 56 52 50 52 51 58 63 57 64 59 59 58 57 64 64 66 82
87 89 87 93 86 85 89 94 95 94 90 88 86 76 98 100 95 81 82 69 63 66 74 57 52 49 48 54 53 51 55 54 56 53 58 62 55 60 60 53 55 61 56 63 60 70 76
87 82 78 79 79 83 88 93 95 96 96 92 90 84 88 100 94 90 80 67 64 62 91 62 64 56 57 53 53 47 56 58 57 60 61 54 56 61 57 54 50 53 49 55 67 72 82
82 79 82 85 86 86 89 89 91 93 93 90 94 85 83 99 92 93 75 66 60 58 69 61 66 56 56 56 54 57 58 56 56 60 60 58 64 61 60 54 54 53 58 53 61 64 63
80 82 82 86 88 86 89 91 93 91 95 93 93 87 81 97 99 82 75 60 57 88 79 73 68 64 63 59 54 54 55 51 56 61 58 60 56 66 59 61 59 60 60 63 62 65 73
81 82 82 86 88 88 91 91 90 92 93 94 91 76 95 92 89 79 69 58 92 86 60 73 77 74 62 62 59 58 56 51 51 60 79 58 54 55 66 65 56 62 61 77 78 87 61
78 84 85 84 90 88 88 90 92 83 82 89 71 78 96 97 87 85 74 69 82 88 74 58 73 70 59 57 62 63 59 53 60 54 66 70 62 55 57 65 68 58 67 61 61 59 55
79 81 86 90 86 90 91 93 94 90 87 81 74 98 99 90 92 83 63 96 74 84 60 68 68 60 63 62 59 62 59 54 54 53 55 60 58 52 57 60 64 96 92 62 71 60 63
82 84 84 92 86 90 95 96 81 85 87 73 94 97 99 85 95 81 72 79 77 61 60 65 56 57 48 61 60 60 53 58 59 56 50 57 78 62 63 63 63 71 77 98 94 88 62
82 84 82 95 88 90 94 84 90 87 74 74 90 96 92 92 92 82 92 79 70 56 58 65 55 58 50 61 57 58 56 64 57 60 55 58 72 56 58 61 57 64 76 86 99 90 58
82 83 81 90 90 88 77 87 81 82 65 82 85 97 100 99 99 88 88 73 65 62 60 60 54 56 51 62 63 61 62 59 54 65 62 65 65 75 53 57 60 63 87 100 94 86 91
83 84 85 83 89 79 79 77 93 81 71 94 93 94 100 98 100 91 80 74 71 61 61 60 59 57 54 57 51 60 62 59 62 67 70 62 77 67 47 70 58 65 64 74 88 99 85
83 85 87 87 84 86 93 85 87 87 96 84 96 100 99 97 91 85 74 70 70 62 60 56 56 55 53 54 54 58 59 58 62 70 70 58 90 76 58 66 69 71 60 62 78 89 90
79 86 88 90 88 87 88 84 85 77 84 91 90 98 91 100 99 73 64 75 65 60 61 59 60 56 50 55 57 58 50 50 51 58 61 59 70 70 56 53 56 63 62 56 82 70 90
80 80 87 89 91 88 86 92 83 82 91 87 92 100 83 88 88 73 77 77 64 59 61 66 61 61 52 42 36 47 49 46 42 50 60 68 82 90 78 59 68 65 52 58 61 61 66
81 85 86 89 91 93 86 87 90 90 92 82 89 82 94 89 94 84 70 72 56 56 49 48 55 53 53 49 45 49 47 51 62 61 65 69 81 82 70 65 87 82 69 66 69 68 74
84 85 89 88 88 89 87 81 80 91 82 86 87 86 98 83 79 73 67 66 57 52 47 49 42 39 56 47 45 46 53 56 57 65 62 69 81 76 75 73 74 70 59 68 76 87 90
83 79 89 86 90 88 84 86 73 72 78 97 94 82 78 54 70 69 67 60 52 55 56 57 57 54 47 52 57 65 70 71 74 67 67 69 69 77 72 60 57 65 69 68 70 90 97
82 82 85 85 91 90 86 88 76 77 81 99 100 92 84 50 59 58 58 49 46 52 54 61 55 53 57 50 57 65 51 68 76 82 76 73 67 71 76 67 51 63 64 69 70 70 85
78 84 85 90 92 92 86 90 84 84 92 100 98 98 70 53 70 66 48 47 45 49 52 58 58 59 59 56 55 58 49 62 65 72 76 77 73 71 63 62 42 40 58 66 80 66 73
85 88 87 90 93 92 89 90 87 98 98 96 90 97 61 61 70 73 71 50 50 48 46 60 53 61 60 64 66 60 56 59 64 60 66 57 65 68 68 77 54 47 64 63 62 69 69
88 89 91 92 92 88 82 85 93 99 83 66 70 56 48 60 69 74 75 76 76 70 57 65 46 58 51 51 68 69 62 80 61 43 61 64 48 53 52 41 48 66 63 64 69 72 65
Wind_Speed
20 21 20 22 22 23 24 25 25 25 25 24 23 25 18 16 12 12 13 11 12 10 7 8 12 12 5 4 6 7 13 10 4 5 5 4 6 4 8 7 7 5 6 3 6 9 15
19 20 20 21 22 22 22 23 24 25 24 23 26 26 19 16 12 10 11 12 10 11 7 5 10 11 3 5 1 8 13 7 3 3 3 5 3 4 2 4 9 7 7 8 12 16 12
22 19 20 20 19 22 23 23 24 24 25 25 25 24 32 16 12 9 10 10 10 12 10 5 7 6 6 9 5 10 9 7 3 3 2 2 4 3 3 4 3 7 7 4 9 9 8
20 20 20 20 19 18 20 23 23 24 25 25 25 24 23 16 10 10 13 12 9 9 8 6 5 4 6 5 9 9 8 5 4 5 5 3 2 4 4 3 4 5 4 4 3 11 5
22 22 20 19 18 18 18 20 23 24 24 25 26 22 21 20 11 12 13 16 10 7 8 5 3 4 8 7 5 7 7 6 11 5 5 3 2 2 5 5 4 6 4 6 5 5 4
25 25 25 24 21 19 18 16 17 23 23 24 25 25 22 25 14 13 15 14 6 6 3 4 2 3 5 2 5 10 5 3 3 7 4 5 3 2 3 5 2 6 6 7 9 4 3
25 26 27 27 27 24 22 20 18 21 22 22 24 27 23 24 17 11 10 3 3 3 4 6 5 2 3 4 5 3 4 6 3 1 3 1 4 4 5 6 8 4 6 8 2 6 1
25 27 27 26 28 27 25 23 20 22 22 21 22 26 26 10 12 7 6 3 1 1 5 9 4 3 4 2 2 4 6 3 2 2 3 4 4 2 6 6 3 3 5 5 2 0 4
27 27 28 27 27 27 28 25 23 22 22 20 19 22 21 2 3 5 4 4 3 3 4 2 4 3 2 5 1 3 4 2 2 2 2 5 1 5 6 3 2 1 2 4 1 3 7
27 29 29 28 29 29 28 27 25 22 23 21 17 19 15 11 5 3 2 3 5 3 1 3 4 2 4 3 1 1 3 3 3 2 2 4 3 3 5 5 5 2 2 4 6 7 2
29 30 30 31 31 31 31 27 27 24 24 24 17 17 17 14 4 3 3 7 5 1 1 3 3 1 2 2 2 2 2 2 2 1 2 1 2 2 5 4 5 3 3 3 6 2 3
31 32 32 32 33 34 32 29 26 26 25 22 18 16 18 7 9 6 5 7 2 2 2 2 2 3 3 1 2 0 3 1 2 1 3 4 2 3 4 5 2 2 4 5 4 3 4
31 32 33 34 35 37 34 32 26 25 24 20 17 20 17 10 4 12 7 3 2 1 0 2 2 3 2 2 1 1 0 2 2 2 2 2 3 3 2 5 3 6 6 3 4 3 3
31 33 34 34 38 35 34 31 27 21 21 15 19 28 14 18 12 11 6 3 3 1 3 1 2 4 3 5 1 1 2 1 0 1 1 3 1 2 2 2 3 8 4 3 5 4 2
30 32 33 35 33 31 29 28 22 18 14 9 15 7 12 15 12 14 5 2 3 3 1 3 3 4 4 3 1 2 0 1 1 3 3 3 1 2 3 4 2 1 6 3 1 1 3
29 31 33 32 29 28 30 26 14 9 2 7 7 5 3 12 7 3 2 2 3 4 2 2 1 2 3 4 4 3 1 2 2 2 3 1 4 1 2 2 2 3 2 2 3 5 5
28 28 29 28 23 23 25 20 12 9 8 7 2 1 1 12 9 2 2 3 2 3 4 3 0 2 1 2 3 2 2 2 4 2 2 1 2 1 3 2 5 1 3 3 2 4 2
26 27 27 26 20 19 19 16 10 9 11 6 1 2 4 14 2 2 2 3 1 2 3 2 1 0 2 4 3 2 2 3 6 2 1 2 2 3 5 3 4 1 3 5 4 3 0
25 26 26 27 18 16 19 15 10 9 11 4 2 2 7 2 2 3 1 2 2 1 3 1 1 1 1 3 1 1 2 2 7 3 2 2 1 3 1 3 6 4 4 2 4 3 4
23 23 24 23 18 17 18 17 12 5 6 4 2 1 2 1 3 2 4 4 2 1 2 1 2 1 2 2 2 3 3 3 3 3 6 1 2 2 5 4 3 5 5 4 4 2 5
21 21 22 22 20 14 15 20 7 6 3 3 1 1 1 3 2 3 4 3 1 3 2 1 1 2 2 2 2 2 2 2 4 4 3 2 1 2 6 6 8 9 9 7 5 6 3
20 19 20 21 19 13 14 13 2 2 2 3 0 2 1 0 5 3 1 1 1 2 1 1 2 3 1 1 2 2 3 1 2 3 3 3 1 0 2 5 4 4 6 8 10 10 10
20 18 18 19 16 15 11 13 4 6 10 2 3 0 1 2 4 3 2 2 2 2 3 5 1 3 3 4 6 7 8 7 4 1 2 2 2 2 2 7 2 2 4 2 0 0 4
20 17 16 17 15 14 10 9 7 4 13 1 2 5 2 0 4 6 1 4 0 1 3 4 4 1 4 12 11 10 11 10 8 8 4 3 2 0 2 4 1 2 4 2 5 4 2
19 17 15 16 13 13 12 8 8 9 8 8 4 4 3 2 6 5 5 2 6 5 4 3 5 2 11 1 2 3 2 1 4 6 4 2 0 1 2 2 3 3 2 2 2 3 1
20 17 16 15 15 13 12 10 12 16 17 17 16 13 2 5 1 3 3 4 3 3 3 3 5 7 2 1 1 2 2 1 3 1 2 1 2 2 1 1 1 4 2 1 3 4 2
20 17 16 15 14 14 13 13 15 21 23 24 14 28 5 3 2 1 2 1 3 3 3 4 5 3 2 1 2 3 1 0 3 4 5 2 2 3 3 3 4 4 1 4 3 4 5
20 19 16 15 13 15 14 12 13 13 12 27 15 26 10 2 2 1 2 1 1 2 3 5 4 2 3 4 2 2 3 3 3 2 4 5 6 3 3 3 2 5 4 4 3 2 1
18 21 17 17 13 14 15 11 10 6 18 19 10 18 11 5 3 2 4 5 1 1 3 3 2 3 4 3 2 2 3 2 2 2 4 4 3 2 5 1 2 3 1 1 2 1 1
Wind_Direction
350 344 344 341 343 345 346 347 343 342 342 340 337 337 284 270 277 295 305 307 299 295 313 318 310 323 344 279 259 307 322 315 307 319 337 329 272 252 195 191 180 198 158 93 17 360 340
342 340 338 340 341 344 343 342 341 344 339 337 337 342 310 259 282 294 304 304 301 293 295 307 306 317 273 277 236 319 322 303 275 262 317 309 322 307 316 219 214 140 126 97 43 17 2
336 332 331 332 336 338 339 337 338 341 340 338 338 338 354 254 279 280 292 296 296 288 292 286 299 295 260 258 296 319 319 290 290 233 231 241 286 303 175 177 174 165 187 68 48 20 11
327 328 325 325 327 328 329 334 336 336 336 338 338 338 339 268 269 275 282 296 285 274 286 287 291 260 261 265 293 301 315 317 287 266 260 278 346 289 290 137 180 176 165 210 65 5 2
325 322 319 319 319 320 323 326 327 329 332 335 336 335 335 341 268 275 288 301 281 258 282 262 202 225 274 304 284 310 320 314 306 245 258 264 237 292 161 193 164 199 192 200 261 65 307
328 324 322 313 310 306 304 315 316 319 324 330 332 330 325 334 268 281 291 289 270 238 188 129 128 265 249 258 309 309 306 305 275 296 227 209 192 243 270 255 263 201 184 195 205 154 255
329 328 326 323 322 311 303 303 308 311 318 326 329 327 314 310 270 267 298 327 195 170 185 215 169 270 273 286 293 252 328 304 270 206 268 213 206 196 289 309 307 295 290 203 154 171 222
332 329 325 322 319 319 312 303 304 301 310 323 329 332 334 312 234 250 280 243 49 30 279 226 181 244 267 265 289 275 333 276 306 272 292 238 238 180 307 282 265 182 147 117 122 28 223
330 329 327 325 322 320 319 315 306 302 301 312 322 331 348 23 248 262 224 225 172 167 259 145 180 196 176 205 211 279 329 310 355 263 311 265 52 309 275 249 198 118 96 143 50 175 261
330 326 326 325 322 321 320 317 316 305 301 300 307 323 329 306 288 244 236 218 172 183 306 138 162 143 149 183 217 283 300 303 194 240 289 264 316 298 285 276 296 214 195 172 151 163 288
328 328 328 329 326 323 318 312 308 306 298 294 295 309 311 322 286 236 295 181 147 214 298 93 123 88 141 228 111 165 274 258 249 266 244 39 333 292 254 294 317 4 309 211 188 213 277
331 331 331 329 325 321 316 311 304 303 294 289 289 293 303 292 221 229 193 165 134 224 247 125 110 177 171 143 142 245 219 246 355 247 304 312 309 287 324 310 314 183 154 113 146 236 269
331 330 329 328 323 319 312 306 299 297 294 292 288 290 273 262 212 205 180 207 119 218 270 163 166 197 177 145 154 1 314 184 273 248 32 299 298 306 277 284 211 228 210 173 206 212 247
329 331 331 329 326 326 322 312 298 290 296 298 303 308 233 211 196 179 198 193 198 76 242 46 115 149 172 162 142 160 244 211 267 5 73 12 126 332 350 285 307 234 269 257 215 207 204
329 331 332 332 336 335 336 331 305 289 291 311 318 358 143 171 172 180 219 201 139 177 260 173 145 209 158 160 266 210 3 31 345 233 352 342 155 302 300 309 321 221 231 356 66 27 243
330 331 333 338 341 343 345 344 327 320 360 331 339 345 53 176 169 177 211 209 131 166 164 179 263 268 174 164 204 207 186 35 13 301 315 67 302 86 340 278 185 290 43 207 185 207 218
326 330 333 340 341 349 358 4 38 49 354 329 346 334 158 183 141 197 200 203 165 211 188 188 200 189 168 163 210 159 114 88 357 10 227 224 320 88 263 20 358 356 283 268 342 329 266
323 330 333 340 339 346 358 3 18 17 354 17 4 335 145 151 104 201 199 199 225 108 162 157 156 134 184 160 176 159 132 44 349 316 46 17 283 295 330 350 339 357 83 4 312 149 12
323 327 334 338 336 340 342 336 339 356 5 356 16 330 147 175 134 180 245 263 312 137 136 120 170 316 127 167 219 138 129 68 15 40 42 8 85 298 212 131 61 55 54 94 266 265 216
320 322 331 335 337 336 329 341 292 316 360 22 334 308 81 199 305 155 200 235 156 202 98 122 123 147 160 141 39 145 142 56 26 63 29 248 88 270 286 332 349 296 305 355 346 292 344
320 320 326 333 339 341 338 339 246 249 292 37 61 351 267 166 270 195 224 340 183 104 67 172 133 233 200 152 142 124 139 141 73 5 41 52 109 322 292 300 275 260 276 261 262 274 284
314 316 319 329 336 341 347 357 342 191 224 195 262 307 346 34 135 142 283 338 264 107 83 106 247 124 104 98 20 175 160 217 43 61 53 5 114 36 275 348 334 252 257 248 254 266 270
310 309 313 323 330 338 340 350 350 264 198 185 199 249 223 151 142 183 250 208 348 149 67 49 342 131 108 62 80 70 74 76 85 62 82 48 112 334 36 3 320 140 30 28 97 3 299
304 303 305 311 322 328 327 339 345 20 181 193 34 82 310 324 210 219 325 225 73 50 86 38 24 56 109 126 108 84 74 78 72 56 33 120 109 212 336 312 73 75 16 49 120 115 8
298 297 298 303 308 308 310 301 301 253 245 222 187 142 268 301 216 239 208 143 111 63 69 63 3 0 150 151 114 126 105 102 61 32 30 33 144 74 333 323 334 129 144 241 276 156 47
292 289 291 297 300 299 298 296 295 284 270 254 244 216 235 308 133 354 197 195 154 103 104 62 41 119 335 40 165 231 242 91 181 167 355 96 72 287 183 289 266 111 154 286 223 222 155
285 284 285 290 292 289 295 295 298 295 276 230 207 205 204 255 91 329 238 210 111 98 99 135 165 181 322 207 232 232 215 280 214 198 186 184 215 226 204 258 264 209 302 152 233 75 149
276 278 281 281 285 285 291 296 315 347 158 155 158 185 202 136 77 348 335 210 135 175 163 139 143 174 163 215 226 190 225 189 216 182 195 196 173 188 166 223 261 163 152 234 43 163 147
262 275 276 278 274 275 285 293 318 123 150 133 120 165 164 84 87 103 87 61 295 313 124 172 351 159 161 161 203 141 194 192 238 248 199 229 235 223 221 230 116 162 257 166 173 262 47